Time,TemperatureF,DewpointF,PressureIn,WindDirection,WindDirectionDegrees,WindSpeedMPH,WindSpeedGustMPH,Humidity,HourlyPrecipIn,Conditions,Clouds,dailyrainin,SoftwareType,DateUTC
2013-07-01 00:01:00,72.0,-99.9,29.93,SW,236,11.0,-999.0,-999,-99.99,,,-99.99,,2013-07-01 04:01:00,
2013-07-01 00:22:00,72.0,-99.9,29.93,SW,232,12.0,-999.0,-999,-99.99,,,-99.99,,2013-07-01 04:22:00,
2013-07-01 00:32:00,72.0,-99.9,29.93,SW,232,12.0,-999.0,-999,-99.99,,,-99.99,,2013-07-01 04:32:00,
2013-07-01 00:53:00,71.0,-99.9,29.94,WSW,238,12.0,-999.0,-999,-99.99,,,-99.99,,2013-07-01 04:53:00,
2013-07-01 01:02:00,71.0,-99.9,29.94,WSW,238,12.0,-999.0,-999,-99.99,,,-99.99,,2013-07-01 05:02:00,
2013-07-01 01:22:00,72.0,-99.9,29.94,WSW,243,12.0,-999.0,-999,-99.99,,,-99.99,,2013-07-01 05:22:00,
2013-07-01 01:33:00,72.0,-99.9,29.94,WSW,243,12.0,-999.0,-999,-99.99,,,-99.99,,2013-07-01 05:33:00,
2013-07-01 01:52:00,72.0,-99.9,29.94,West,261,12.0,-999.0,-999,-99.99,,,-99.99,,2013-07-01 05:52:00,
2013-07-01 02:02:00,72.0,-99.9,29.94,West,261,12.0,-999.0,-999,-99.99,,,-99.99,,2013-07-01 06:02:00,
2013-07-01 02:24:00,70.0,-99.9,29.94,WSW,240,11.0,-999.0,-999,-99.99,,,-99.99,,2013-07-01 06:24:00,
2013-07-01 02:34:00,70.0,-99.9,29.94,WSW,240,11.0,-999.0,-999,-99.99,,,-99.99,,2013-07-01 06:34:00,
2013-07-01 02:53:00,70.0,-99.9,29.94,West,261,9.0,-999.0,-999,-99.99,,,-99.99,,2013-07-01 06:53:00,
2013-07-01 03:02:00,70.0,-99.9,29.94,West,261,9.0,-999.0,-999,-99.99,,,-99.99,,2013-07-01 07:02:00,
2013-07-01 03:22:00,70.0,-99.9,29.94,WSW,244,11.0,-999.0,-999,-99.99,,,-99.99,,2013-07-01 07:22:00,
2013-07-01 03:33:00,70.0,-99.9,29.94,WSW,244,11.0,-999.0,-999,-99.99,,,-99.99,,2013-07-01 07:33:00,
2013-07-01 03:53:00,71.0,-99.9,29.93,SW,226,12.0,-999.0,-999,-99.99,,,-99.99,,2013-07-01 07:53:00,
2013-07-01 04:01:00,71.0,-99.9,29.93,SW,226,12.0,-999.0,-999,-99.99,,,-99.99,,2013-07-01 08:01:00,
2013-07-01 04:22:00,70.0,-99.9,29.93,SW,236,11.0,-999.0,-999,-99.99,,,-99.99,,2013-07-01 08:22:00,
2013-07-01 04:33:00,70.0,-99.9,29.93,SW,236,11.0,-999.0,-999,-99.99,,,-99.99,,2013-07-01 08:33:00,
2013-07-01 04:52:00,71.0,-99.9,29.94,WSW,258,7.0,-999.0,-999,-99.99,,,-99.99,,2013-07-01 08:52:00,
2013-07-01 05:02:00,71.0,-99.9,29.94,WSW,258,7.0,-999.0,-999,-99.99,,,-99.99,,2013-07-01 09:02:00,
2013-07-01 05:22:00,71.0,-99.9,29.95,WSW,253,9.0,-999.0,-999,-99.99,,,-99.99,,2013-07-01 09:22:00,
2013-07-01 05:34:00,71.0,-99.9,29.95,WSW,253,9.0,-999.0,-999,-99.99,,,-99.99,,2013-07-01 09:34:00,
2013-07-01 05:53:00,71.0,-99.9,29.96,West,267,9.0,-999.0,-999,-99.99,,,-99.99,,2013-07-01 09:53:00,
2013-07-01 06:03:00,71.0,-99.9,29.96,West,267,9.0,-999.0,-999,-99.99,,,-99.99,,2013-07-01 10:03:00,
2013-07-01 06:22:00,71.0,-99.9,29.96,WSW,239,5.0,-999.0,-999,-99.99,,,-99.99,,2013-07-01 10:22:00,
2013-07-01 06:33:00,71.0,-99.9,29.96,WSW,239,5.0,-999.0,-999,-99.99,,,-99.99,,2013-07-01 10:33:00,
2013-07-01 06:52:00,71.0,-99.9,29.97,WSW,237,10.0,-999.0,-999,-99.99,,,-99.99,,2013-07-01 10:52:00,
2013-07-01 07:02:00,71.0,-99.9,29.97,WSW,237,10.0,-999.0,-999,-99.99,,,-99.99,,2013-07-01 11:02:00,
2013-07-01 07:22:00,71.0,-99.9,29.97,WSW,249,13.0,-999.0,-999,-99.99,,,-99.99,,2013-07-01 11:22:00,
2013-07-01 07:34:00,71.0,-99.9,29.97,WSW,249,13.0,-999.0,-999,-99.99,,,-99.99,,2013-07-01 11:34:00,
2013-07-01 07:52:00,71.0,-99.9,29.98,SW,234,11.0,-999.0,-999,-99.99,,,-99.99,,2013-07-01 11:52:00,
2013-07-01 08:01:00,71.0,-99.9,29.98,SW,234,11.0,-999.0,-999,-99.99,,,-99.99,,2013-07-01 12:01:00,
2013-07-01 08:22:00,71.0,-99.9,29.97,SW,228,6.0,-999.0,-999,-99.99,,,-99.99,,2013-07-01 12:22:00,
2013-07-01 08:33:00,71.0,-99.9,29.97,SW,228,6.0,-999.0,-999,-99.99,,,-99.99,,2013-07-01 12:33:00,
2013-07-01 08:53:00,73.0,-99.9,29.98,SW,230,11.0,-999.0,-999,-99.99,,,-99.99,,2013-07-01 12:53:00,
2013-07-01 09:02:00,73.0,-99.9,29.98,SW,230,11.0,-999.0,-999,-99.99,,,-99.99,,2013-07-01 13:02:00,
2013-07-01 09:23:00,73.0,-99.9,29.98,SW,229,11.0,-999.0,-999,-99.99,,,-99.99,,2013-07-01 13:23:00,
2013-07-01 09:33:00,73.0,-99.9,29.98,SW,229,11.0,-999.0,-999,-99.99,,,-99.99,,2013-07-01 13:33:00,
2013-07-01 09:43:00,73.0,-99.9,29.98,SW,229,11.0,-999.0,-999,-99.99,,,-99.99,,2013-07-01 13:43:00,
2013-07-01 09:53:00,72.0,-99.9,29.98,WSW,237,13.0,-999.0,-999,-99.99,,,-99.99,,2013-07-01 13:53:00,
2013-07-01 10:02:00,72.0,-99.9,29.98,WSW,237,13.0,-999.0,-999,-99.99,,,-99.99,,2013-07-01 14:02:00,
2013-07-01 10:11:00,72.0,-99.9,29.98,WSW,237,13.0,-999.0,-999,-99.99,,,-99.99,,2013-07-01 14:11:00,
2013-07-01 10:22:00,71.0,-99.9,29.99,SW,223,10.0,-999.0,-999,-99.99,,,-99.99,,2013-07-01 14:22:00,
2013-07-01 10:34:00,71.0,-99.9,29.99,SW,223,10.0,-999.0,-999,-99.99,,,-99.99,,2013-07-01 14:34:00,
2013-07-01 10:43:00,71.0,-99.9,29.99,SW,223,10.0,-999.0,-999,-99.99,,,-99.99,,2013-07-01 14:43:00,
2013-07-01 10:53:00,71.0,-99.9,29.99,SW,229,13.0,-999.0,-999,-99.99,,,-99.99,,2013-07-01 14:53:00,
2013-07-01 11:02:00,71.0,-99.9,29.99,SW,229,13.0,-999.0,-999,-99.99,,,-99.99,,2013-07-01 15:02:00,
2013-07-01 11:12:00,71.0,-99.9,29.99,SW,229,13.0,-999.0,-999,-99.99,,,-99.99,,2013-07-01 15:12:00,
2013-07-01 11:23:00,72.0,-99.9,30.00,WSW,241,12.0,-999.0,-999,-99.99,,,-99.99,,2013-07-01 15:23:00,
2013-07-01 11:34:00,72.0,-99.9,30.00,WSW,241,12.0,-999.0,-999,-99.99,,,-99.99,,2013-07-01 15:34:00,
2013-07-01 11:44:00,72.0,-99.9,30.00,WSW,241,12.0,-999.0,-999,-99.99,,,-99.99,,2013-07-01 15:44:00,
2013-07-01 11:53:00,73.0,-99.9,30.00,WSW,242,9.0,-999.0,-999,-99.99,,,-99.99,,2013-07-01 15:53:00,
2013-07-01 12:01:00,73.0,-99.9,30.00,WSW,242,9.0,-999.0,-999,-99.99,,,-99.99,,2013-07-01 16:01:00,
2013-07-01 12:22:00,73.0,-99.9,30.01,West,265,11.0,-999.0,-999,-99.99,,,-99.99,,2013-07-01 16:22:00,
2013-07-01 12:33:00,73.0,-99.9,30.01,West,265,11.0,-999.0,-999,-99.99,,,-99.99,,2013-07-01 16:33:00,
2013-07-01 12:53:00,73.0,-99.9,30.02,SW,232,13.0,-999.0,-999,-99.99,,,-99.99,,2013-07-01 16:53:00,
2013-07-01 13:02:00,73.0,-99.9,30.02,SW,232,13.0,-999.0,-999,-99.99,,,-99.99,,2013-07-01 17:02:00,
2013-07-01 13:12:00,73.0,-99.9,30.02,SW,232,13.0,-999.0,-999,-99.99,,,-99.99,,2013-07-01 17:12:00,
2013-07-01 13:34:00,72.0,-99.9,30.01,SW,235,9.0,-999.0,-999,-99.99,,,-99.99,,2013-07-01 17:34:00,
2013-07-01 13:53:00,73.0,-99.9,30.01,SW,234,12.0,-999.0,-999,-99.99,,,-99.99,,2013-07-01 17:53:00,
2013-07-01 14:02:00,73.0,-99.9,30.01,SW,234,12.0,-999.0,-999,-99.99,,,-99.99,,2013-07-01 18:02:00,
2013-07-01 14:11:00,73.0,-99.9,30.01,SW,234,12.0,-999.0,-999,-99.99,,,-99.99,,2013-07-01 18:11:00,
2013-07-01 14:22:00,74.0,-99.9,30.00,SW,227,14.0,-999.0,-999,-99.99,,,-99.99,,2013-07-01 18:22:00,
2013-07-01 14:33:00,74.0,-99.9,30.00,SW,227,14.0,-999.0,-999,-99.99,,,-99.99,,2013-07-01 18:33:00,
2013-07-01 14:53:00,74.0,-99.9,30.01,SW,231,10.0,-999.0,-999,-99.99,,,-99.99,,2013-07-01 18:53:00,
2013-07-01 15:02:00,74.0,-99.9,30.01,SW,231,10.0,-999.0,-999,-99.99,,,-99.99,,2013-07-01 19:02:00,
2013-07-01 15:11:00,74.0,-99.9,30.01,SW,231,10.0,-999.0,-999,-99.99,,,-99.99,,2013-07-01 19:11:00,
2013-07-01 15:22:00,74.0,-99.9,30.01,SW,234,15.0,-999.0,-999,-99.99,,,-99.99,,2013-07-01 19:22:00,
2013-07-01 15:34:00,74.0,-99.9,30.01,SW,234,15.0,-999.0,-999,-99.99,,,-99.99,,2013-07-01 19:34:00,
2013-07-01 15:53:00,73.0,-99.9,30.01,SW,234,12.0,-999.0,-999,-99.99,,,-99.99,,2013-07-01 19:53:00,
2013-07-01 16:02:00,73.0,-99.9,30.01,SW,234,12.0,-999.0,-999,-99.99,,,-99.99,,2013-07-01 20:02:00,
2013-07-01 16:11:00,73.0,-99.9,30.01,SW,234,12.0,-999.0,-999,-99.99,,,-99.99,,2013-07-01 20:11:00,
2013-07-01 16:22:00,75.0,-99.9,30.00,SW,229,10.0,-999.0,-999,-99.99,,,-99.99,,2013-07-01 20:22:00,
2013-07-01 16:34:00,75.0,-99.9,30.00,SW,229,10.0,-999.0,-999,-99.99,,,-99.99,,2013-07-01 20:34:00,
2013-07-01 16:52:00,73.0,-99.9,30.02,WSW,245,12.0,-999.0,-999,-99.99,,,-99.99,,2013-07-01 20:52:00,
2013-07-01 17:02:00,73.0,-99.9,30.02,WSW,245,12.0,-999.0,-999,-99.99,,,-99.99,,2013-07-01 21:02:00,
2013-07-01 17:11:00,73.0,-99.9,30.02,WSW,245,12.0,-999.0,-999,-99.99,,,-99.99,,2013-07-01 21:11:00,
2013-07-01 17:24:00,73.0,-99.9,30.01,WSW,253,11.0,-999.0,-999,-99.99,,,-99.99,,2013-07-01 21:24:00,
2013-07-01 17:34:00,73.0,-99.9,30.01,WSW,253,11.0,-999.0,-999,-99.99,,,-99.99,,2013-07-01 21:34:00,
2013-07-01 17:53:00,73.0,-99.9,30.02,WSW,250,11.0,-999.0,-999,-99.99,,,-99.99,,2013-07-01 21:53:00,
2013-07-01 18:01:00,73.0,-99.9,30.02,WSW,250,11.0,-999.0,-999,-99.99,,,-99.99,,2013-07-01 22:01:00,
2013-07-01 18:12:00,73.0,-99.9,30.02,WSW,250,11.0,-999.0,-999,-99.99,,,-99.99,,2013-07-01 22:12:00,
2013-07-01 18:33:00,73.0,-99.9,30.02,WSW,243,12.0,-999.0,-999,-99.99,,,-99.99,,2013-07-01 22:33:00,
2013-07-01 18:53:00,72.0,-99.9,30.02,WSW,241,12.0,-999.0,-999,-99.99,,,-99.99,,2013-07-01 22:53:00,
2013-07-01 19:02:00,72.0,-99.9,30.02,WSW,241,12.0,-999.0,-999,-99.99,,,-99.99,,2013-07-01 23:02:00,
2013-07-01 19:11:00,72.0,-99.9,30.02,WSW,241,12.0,-999.0,-999,-99.99,,,-99.99,,2013-07-01 23:11:00,
2013-07-01 19:22:00,72.0,-99.9,30.02,WSW,238,8.0,-999.0,-999,-99.99,,,-99.99,,2013-07-01 23:22:00,
2013-07-01 19:33:00,72.0,-99.9,30.02,WSW,238,8.0,-999.0,-999,-99.99,,,-99.99,,2013-07-01 23:33:00,
2013-07-01 19:53:00,72.0,-99.9,30.03,WSW,243,14.0,-999.0,-999,-99.99,,,-99.99,,2013-07-01 23:53:00,
2013-07-01 20:01:00,72.0,-99.9,30.03,WSW,243,14.0,-999.0,-999,-99.99,,,-99.99,,2013-07-02 00:01:00,
2013-07-01 20:22:00,72.0,-99.9,30.04,WSW,257,10.0,-999.0,-999,-99.99,,,-99.99,,2013-07-02 00:22:00,
2013-07-01 20:34:00,72.0,-99.9,30.04,WSW,257,10.0,-999.0,-999,-99.99,,,-99.99,,2013-07-02 00:34:00,
2013-07-01 20:53:00,72.0,-99.9,30.05,WSW,249,12.0,-999.0,-999,-99.99,,,-99.99,,2013-07-02 00:53:00,
2013-07-01 21:01:00,72.0,-99.9,30.05,WSW,249,12.0,-999.0,-999,-99.99,,,-99.99,,2013-07-02 01:01:00,
2013-07-01 21:22:00,73.0,-99.9,30.07,WSW,239,11.0,-999.0,-999,-99.99,,,-99.99,,2013-07-02 01:22:00,
2013-07-01 21:33:00,73.0,-99.9,30.07,WSW,239,11.0,-999.0,-999,-99.99,,,-99.99,,2013-07-02 01:33:00,
2013-07-01 21:53:00,72.0,-99.9,30.08,WSW,245,9.0,-999.0,-999,-99.99,,,-99.99,,2013-07-02 01:53:00,
2013-07-01 22:02:00,72.0,-99.9,30.08,WSW,245,9.0,-999.0,-999,-99.99,,,-99.99,,2013-07-02 02:02:00,
2013-07-01 22:12:00,72.0,-99.9,30.08,WSW,245,9.0,-999.0,-999,-99.99,,,-99.99,,2013-07-02 02:12:00,
2013-07-01 22:22:00,72.0,-99.9,30.08,SW,236,8.0,-999.0,-999,-99.99,,,-99.99,,2013-07-02 02:22:00,
2013-07-01 22:34:00,72.0,-99.9,30.08,SW,236,8.0,-999.0,-999,-99.99,,,-99.99,,2013-07-02 02:34:00,
2013-07-01 22:53:00,72.0,-99.9,30.08,WSW,248,10.0,-999.0,-999,-99.99,,,-99.99,,2013-07-02 02:53:00,
2013-07-01 23:02:00,72.0,-99.9,30.08,WSW,248,10.0,-999.0,-999,-99.99,,,-99.99,,2013-07-02 03:02:00,
2013-07-01 23:12:00,72.0,-99.9,30.08,WSW,248,10.0,-999.0,-999,-99.99,,,-99.99,,2013-07-02 03:12:00,
2013-07-01 23:33:00,73.0,-99.9,30.07,SW,236,12.0,-999.0,-999,-99.99,,,-99.99,,2013-07-02 03:33:00,
2013-07-01 23:43:00,73.0,-99.9,30.07,SW,236,12.0,-999.0,-999,-99.99,,,-99.99,,2013-07-02 03:43:00,
2013-07-01 23:53:00,72.0,-99.9,30.07,SW,231,11.0,-999.0,-999,-99.99,,,-99.99,,2013-07-02 03:53:00,